Weather History for Anchorage Merrill, AK

Change the Weather History Date:

Saturday, February 11, 2012

  Actual Average Record
Temperature  
Mean Temperature 31 °F -  
Max Temperature 36 °F 26 °F 14 °F (2014)
Min Temperature 26 °F 13 °F 0 °F (2014)
Degree Days  
Heating Degree Days 34    
Moisture  
Dew Point 26 °F    
Average Humidity 81    
Maximum Humidity 89    
Minimum Humidity 67    
Precipitation  
Precipitation 0.00 in - - ()
Sea Level Pressure  
Sea Level Pressure 29.23 in    
Wind  
Wind Speed 4 mph (West)    
Max Wind Speed 12 mph    
Max Gust Speed 32 mph    
Visibility 10 miles    
Events      
Averages and records for this station are not official NWS values.
T = Trace of Precipitation, MM = Missing Value Source: NWS Daily Summary

Daily Weather History Graph

Daily Weather History Graph

Search for Another Location

Airport:

Trip Planner

Search our weather history database for the weather conditions in past years. The results will help you decide how hot, cold, wet, or windy it might be!

Date:

Astronomy

Feb. 11, 2012 Rise Set
Actual Time 8:54 AM AKST 5:34 PM AKST
Civil Twilight 8:07 AM AKST 6:21 PM AKST
Nautical Twilight 7:16 AM AKST 7:12 PM AKST
Astronomical Twilight 6:26 AM AKST 8:02 PM AKST
Moon No Moon Rise 9:06 AM AKST (2/11)
Length of Visible Light 10h 13m
Length of Day
8h 40m
Waning Gibbous, 81% of the Moon is Illuminated
Feb 11
Waning Gibbous
Feb 14
Last Quarter
Feb 21
New
Feb 29
First Quarter
Mar 8
Full

Hourly Weather History & Observations

Time (AKST) Temp. Windchill Dew Point Humidity Pressure Visibility Wind Dir Wind Speed Gust Speed Precip Events Conditions
12:53 AM 33.1 °F 28.7 °F 27.0 °F 78% 29.46 in 10.0 mi NW 4.6 mph - N/A   Mostly Cloudy
1:53 AM 30.0 °F - 27.0 °F 88% 29.43 in 10.0 mi Calm Calm - N/A   Overcast
2:53 AM 30.9 °F - 26.1 °F 82% 29.39 in 10.0 mi Calm Calm - N/A   Overcast
3:53 AM 30.0 °F - 26.1 °F 85% 29.33 in 10.0 mi Calm Calm - N/A   Overcast
4:53 AM 30.9 °F 26.2 °F 27.0 °F 85% 29.27 in 10.0 mi NW 4.6 mph - N/A   Overcast
5:53 AM 30.9 °F 24.3 °F 26.1 °F 82% 29.26 in 10.0 mi WSW 6.9 mph - N/A   Overcast
6:53 AM 30.9 °F - 25.0 °F 79% 29.26 in 10.0 mi Calm Calm - N/A   Overcast
7:53 AM 30.0 °F 25.2 °F 25.0 °F 82% 29.25 in 10.0 mi NE 4.6 mph - N/A   Overcast
8:53 AM 30.0 °F 25.2 °F 25.0 °F 82% 29.25 in 10.0 mi West 4.6 mph - N/A   Mostly Cloudy
9:53 AM 34.0 °F - 27.0 °F 75% 29.25 in 10.0 mi Calm Calm - N/A   Overcast
10:53 AM 36.0 °F 28.0 °F 27.0 °F 70% 29.24 in 10.0 mi NNW 11.5 mph - N/A   Overcast
11:22 AM 35.6 °F 28.0 °F 28.4 °F 75% 29.23 in 10.0 mi South 10.4 mph 32.2 mph N/A   Overcast
11:53 AM 36.0 °F 30.3 °F 26.1 °F 67% 29.22 in 10.0 mi WNW 6.9 mph 20.7 mph N/A   Overcast
12:53 PM 33.1 °F 26.1 °F 27.0 °F 78% 29.22 in 10.0 mi SSW 8.1 mph 20.7 mph N/A   Overcast
1:53 PM 33.1 °F 30.0 °F 27.0 °F 78% 29.21 in 10.0 mi WSW 3.5 mph - N/A   Overcast
2:53 PM 32.0 °F 24.8 °F 27.0 °F 82% 29.19 in 10.0 mi WNW 8.1 mph - N/A   Overcast
3:53 PM 32.0 °F - 26.1 °F 79% 29.19 in 10.0 mi Calm Calm - N/A   Mostly Cloudy
4:53 PM 33.1 °F 27.7 °F 27.0 °F 78% 29.18 in 10.0 mi NNW 5.8 mph - N/A   Scattered Clouds
5:53 PM 30.9 °F 25.2 °F 26.1 °F 82% 29.17 in 10.0 mi ENE 5.8 mph - N/A   Overcast
6:53 PM 30.9 °F 26.2 °F 26.1 °F 82% 29.18 in 10.0 mi SSW 4.6 mph - N/A   Overcast
7:53 PM 30.0 °F - 26.1 °F 85% 29.18 in 10.0 mi Calm Calm - N/A   Mostly Cloudy
8:53 PM 27.0 °F - 24.1 °F 89% 29.16 in 10.0 mi Calm Calm - N/A   Scattered Clouds
9:53 PM 26.1 °F 20.5 °F 23.0 °F 88% 29.17 in 10.0 mi East 4.6 mph - N/A   Mostly Cloudy
10:53 PM 28.0 °F 24.2 °F 24.1 °F 85% 29.17 in 10.0 mi South 3.5 mph - N/A   Mostly Cloudy
11:53 PM 28.9 °F - 25.0 °F 85% 29.18 in 10.0 mi Calm Calm - N/A   Mostly Cloudy